077  
ASUS45 KTFX 261810  
RWRMT  
MONTANA REGIONAL WEATHER ROUNDUP  
NATIONAL WEATHER SERVICE GREAT FALLS MT  
1100 AM MST FRI FEB 26 2021  
 
NOTE: "FAIR" INDICATES FEW OR NO CLOUDS BELOW 12,000 FEET WITH NO  
SIGNIFICANT WEATHER AND/OR S TO VISIBILITY
.  
 
MTZ001>007-043-261900-  
WEST OF THE DIVIDE  
 
CITY SKY/WX TMP DP RH WIND PRES REMARKS
 
KALISPELL CLOUDY 35 25 66 SE8 29.61S WCI 29  
MISSOULA CLOUDY 32 28 85 S16 29.64S WCI 21  
BUTTE CLOUDY 26 15 63 SW9 29.61S WCI 17  
ANACONDA N/A 28 18 64 S14 29.62S WCI 17  
DEER LODGE N/A 30 18 59 S6 29.63F WCI 24  
HAMILTON PTSUNNY 30 27 86 S12G18 29.65S WCI 21  
MULLAN PASS SNOW 20 17 88 VRB5 29.52S VSB 1/4  
RONAN N/A 34 21 60 CALM 29.63S  

 
 
MTZ008-052>055-261900-  
SOUTHWEST MONTANA  
 
CITY SKY/WX TMP DP RH WIND PRES REMARKS
 
BOZEMAN PTSUNNY 33 14 45 SW23G31 29.62F WCI 21  
DILLON MOSUNNY 30 9 41 SW23 29.61F WCI 17  
ENNIS CLOUDY 28 10 47 SE15G24 29.68F WCI 17  
TWIN BRIDGES PTSUNNY 32 12 43 SW13G25 29.66S WCI 22  

 
 
MTZ009-010-012-014-046-048-049-054-261900-  
EAST SLOPES AND CENTRAL MONTANA  
 
CITY SKY/WX TMP DP RH WIND PRES REMARKS
 
CUT BANK CLOUDY 34 16 47 W20 29.49R WCI 23  
GREAT FALLS PTSUNNY 36 14 40 SW21G30 29.53S WCI 25  
HELENA PTSUNNY 37 14 38 W14G24 29.59F WCI 28  
MALMSTROM AFB PTSUNNY 35 16 45 SW18 29.55S WCI 25  
BOWMANS CORNER FAIR 31 15 52 SW15 29.51S WCI 20  
CHOTEAU N/A 36 10 35 W14G23 29.51S WCI 27  
FAIRFIELD FAIR 37 13 38 W16 29.51F WCI 27  
RAYNESFORD PTSUNNY 34 13 41 SW23G35 29.54R WCI 22  
ULM PTSUNNY 35 16 45 W20 29.55S WCI 24  
WHITE SULPHUR N/A 28 12 50 SW13G21 29.57F WCI 18  

 
 
MTZ011-013-016-021-045-047-050-051-261900-  
NORTH CENTRAL MONTANA  
 
CITY SKY/WX TMP DP RH WIND PRES REMARKS
 
HAVRE PTSUNNY 34 23 64 SW14 29.52S WCI 25  
LEWISTOWN CLOUDY 32 19 58 W21 29.52F WCI 20  
CHINOOK N/A 39 21 48 W17G25 29.51F WCI 30  
DENTON PTSUNNY 34 17 49 W25 29.49R WCI 21  
FORT BENTON N/A 39 16 38 S22G28 29.55R WCI 29  
GEYSER FAIR 35 11 37 W26 29.52S WCI 22  
GRASS RANGE PTSUNNY 35 15 45 W20G25 29.50F WCI 23  
N BAR RANCH FAIR 32 12 43 W16G28 29.53S WCI 21  
ROY FAIR 35 18 49 NW21 29.51S WCI 24  
STANFORD FAIR 35 11 36 W25 29.51S WCI 23  
WINIFRED N/A 35 17 49 W21 29.51S WCI 23  

 
 
MTZ017>020-022>027-061-062-261900-  
NORTHEAST MONTANA  
 
CITY SKY/WX TMP DP RH WIND PRES REMARKS
 
GLASGOW MOSUNNY 41 20 43 W17 29.50R  
CIRCLE N/A 39 19 45 W16G23 29.51 WCI 30  
GLENDIVE MOSUNNY 40 20 44 W17 29.53S  
JORDAN N/A 43 17 35 W21G30 29.51S  
MALTA SUNNY 41 21 45 NW20G25 29.48F  
PLENTYWOOD SUNNY 34 21 60 NW12 29.46S WCI 25  
POPLAR N/A 37 21 52 W14G22 29.49S WCI 29  
SIDNEY SUNNY 42 21 43 NW24G31 29.50S  
WOLF POINT MOSUNNY 40 23 50 W20G25 29.50F  

 
 
MTZ028>42-056>058-261900-  
SOUTHCENTRAL AND SOUTHEAST MONTANA  
 
CITY SKY/WX TMP DP RH WIND PRES REMARKS
 
BAKER MOSUNNY 40 14 34 W22G29 29.55F  
BIG TIMBER SUNNY 34 5 29 W39G53 29.56F WCI 18  
BILLINGS PTSUNNY 35 12 38 SW13 29.60F WCI 26  
HARDIN PTCLDY 37 18 44 SW15 29.61 WCI 28  
HARLOWTON PTSUNNY 34 11 38 W36G44 29.53F WCI 19  
LAUREL N/A 34 14 44 SW8 29.62F WCI 27  
LIVINGSTON PTSUNNY 33 12 41 SW31G43 29.60S WCI 19  
MILES CITY PTSUNNY 39 19 44 W17G25 29.57F WCI 30  

 
 
REGIONAL REPORTS...DAKOTAS/MN  
 
CITY SKY/WX TMP DP RH WIND PRES REMARKS
 
WILLISTON PTCLDY 37 22 54 W16 29.47R WCI 28  
MINOT SUNNY 35 23 61 W16 29.46R WCI 25  
DICKINSON SUNNY 44 16 32 W22G31 29.49S  
BEACH FAIR 39 16 38 W14G23 29.54S WCI 31  
CROSBY FAIR 30 21 69 CALM 29.47R  
HETTINGER SUNNY 43 13 29 W21G30 29.56S  
TIOGA FAIR 32 25 74 W14 29.47F WCI 22  
WATFORD CITY FAIR 39 19 45 W16G23 29.49S WCI 30  
BISMARCK SUNNY 47 19 33 W15G26 29.53S  
GRAND FORKS MOSUNNY 39 27 62 SW13 29.49S WCI 31  
FARGO MOSUNNY 37 29 72 S12 29.54F WCI 29  
RAPID CITY MOSUNNY 41 24 51 SE8 29.63F  
INTL FALLS CLOUDY 38 25 59 SW21G35 29.52F WCI 28  
DULUTH PTSUNNY 39 23 52 SW30G45 29.68F WCI 27  
MINNEAPOLIS CLOUDY 40 22 48 S18G36 29.84F  

 
 
REGIONAL REPORTS...WY/ID/WA  
 
CITY SKY/WX TMP DP RH WIND PRES REMARKS
 
BUFFALO WY MOSUNNY 37 6 27 W17G24 29.59R WCI 27  
CODY PTSUNNY 32 6 33 W21G36 29.65F WCI 20  
GILLETTE MOSUNNY 35 12 38 SW10 29.61S WCI 27  
POWELL FAIR 32 7 34 W16 29.61S WCI 21  
SHERIDAN CLOUDY 37 11 34 W16 29.61S WCI 28  
YELLOWSTONE LA N/A 16 8 71 SW8G22 29.66S WCI 5  
BOISE CLOUDY 38 22 52 S5 29.86F  
COUER D'ALENE PTSUNNY 35 28 75 W9 29.70R WCI 28  
IDAHO FALLS PTSUNNY 26 21 81 SW20 29.83F WCI 12  
SALMON CLOUDY 33 17 51 S24G31 29.67S WCI 20  
SPOKANE MOSUNNY 36 28 73 W10 29.71R WCI 28  
SEATTLE PTSUNNY 43 36 76 S8 30.00R  

 
 
REGIONAL REPORTS...ALBERTA  
 
CITY SKY/WX TMP DP RH WIND PRES REMARKS
 
CARDSTON N/A 34 18 51 W13G20 N/A WCI 25  
CROWSNEST PASS N/A 32 18 55 NW10 N/A WCI 24  
DEL BONITA N/A 30 21 69 W18 N/A WCI 18  
EDMONTON LGT SNOW 0 -4 85 N12 29.75R WCI -18  
FORT MCMURRAY SUNNY -15 -26 58 W8 29.98R WCI -32  
LETHBRIDGE PTSUNNY 39 12 33 N15 29.49R WCI 31  
LLOYDMINSTER FLURRIES 5 -2 72 N17 29.64R WCI -14  
MEDICINE HAT CLOUDY 32 18 55 N10 29.50R WCI 24  
MILK RIVER N/A 34 19 55 W17 N/A WCI 23  
ONEFOUR N/A 32 21 64 NW16 N/A WCI 21  
PEACE RIVER LGT SNOW -4 -11 71 N7 29.86R WCI -18  
PINCHER CREEK SUNNY 36 16 44 W20G25 29.49S WCI 25  
RAYMOND N/A 41 14 33 NW16 N/A  
WATERTON GATE N/A 30 19 64 SW15G21 N/A WCI 19  
FORT SMITH NWT MOSUNNY -26 -35 62 VRB3 30.08F  

 
 
REGIONAL REPORTS...SASKATCHEWAN  
 
CITY SKY/WX TMP DP RH WIND PRES REMARKS
 
ASSINIBOIA N/A 27 16 63 NW14 N/A WCI 15  
CORONACH N/A 34 18 51 W16 N/A WCI 23  
CYPRESS HILLS N/A 28 14 54 MISG N/A  
ESTEVAN PTSUNNY 28 21 74 W9 29.44R WCI 20  
LA RONGE N/A -15 -24 64 NE8 N/A WCI -32  
MOOSE JAW N/A 28 21 74 NW15 N/A WCI 17  
PRINCE ALBERT FLURRIES 3 -4 72 N13 29.67R WCI -14  
REGINA CLOUDY 27 21 80 NW7 29.43R WCI 19  
ROCKGLEN N/A 28 19 69 W14 N/A WCI 17  
SASKATOON LGT SNOW 12 7 79 N18 29.56R DRFTSNOWWCI -5  
SWIFT CURRENT SUNNY 25 19 80 W13 29.44R WCI 13  
URANIUM CITY N/A -22 -36 47 MISG N/A  
VAL MARIE N/A 34 18 51 NW10 N/A WCI 26  

 
 
 
CLICK HERE TO GO TO PREVIOUS BULLETINS.

The Nexlab MT Page Main Text Page